Imperial, NE

10:53 PM MDT on August 23, 2016 (GMT -0600)
Imperial Municipal

Weather History for KIML - January, 2013

Change the Weather History Date:

Friday, January 4, 2013

  Actual Average Record
Temperature  
Mean Temperature 23 °F 28 °F  
Max Temperature 36 °F 41 °F 68 °F (1956)
Min Temperature 10 °F 15 °F -21 °F (1974)
Degree Days  
Heating Degree Days 42 37  
Month to date heating degree days 181 148  
Cooling Degree Days 0 0  
Month to date cooling degree days 0 0  
Year to date cooling degree days 0 0  
Moisture  
Dew Point 9 °F    
Average Humidity 61    
Maximum Humidity 74    
Minimum Humidity 47    
Precipitation  
Precipitation 0.00 in 0.01 in 0.52 in (1949)
Sea Level Pressure  
Sea Level Pressure 30.24 in    
Wind  
Wind Speed 7 mph (WNW)    
Max Wind Speed 15 mph    
Max Gust Speed 18 mph    
Visibility 10 miles    
Events      
T = Trace of Precipitation, MM = Missing Value Source: NWS Daily Summary

Daily Weather History Graph

Daily Weather History Graph

Search for Another Location

Airport or City:

Trip Planner

Search our weather history database for the weather conditions in past years. The results will help you decide how hot, cold, wet, or windy it might be!

Date:

Astronomy

Jan. 04, 2013 Rise Set
Actual Time 7:10 AM MST 4:33 PM MST
Civil Twilight 6:39 AM MST 5:03 PM MST
Nautical Twilight 6:05 AM MST 5:38 PM MST
Astronomical Twilight 5:32 AM MST 6:11 PM MST
Moon No Moon Rise 10:52 AM MST (1/4)
Length of Visible Light 10h 24m
Length of Day
9h 23m
Waning Gibbous, 54% of the Moon is Illuminated
Jan 4
Waning Gibbous
Jan 4
Last Quarter
Jan 11
New
Jan 18
First Quarter
Jan 26
Full

Hourly Weather History & Observations

Time (MST) Temp. Windchill Dew Point Humidity Pressure Visibility Wind Dir Wind Speed Gust Speed Precip Events Conditions
12:53 AM 10.0 °F -4.5 °F 1.9 °F 70% 30.34 in 10.0 mi West 11.5 mph - N/A   Clear
1:53 AM 10.9 °F -2.6 °F 1.9 °F 67% 30.34 in 10.0 mi West 10.4 mph - N/A   Clear
2:53 AM 14.0 °F 0.5 °F 3.9 °F 64% 30.31 in 10.0 mi WNW 11.5 mph - N/A   Clear
3:53 AM 15.1 °F 0.5 °F 3.9 °F 61% 30.31 in 10.0 mi West 13.8 mph - N/A   Clear
4:53 AM 12.9 °F -0.2 °F 3.0 °F 65% 30.32 in 10.0 mi West 10.4 mph - N/A   Clear
5:53 AM 12.2 °F 1.7 °F 3.2 °F 67% 30.16 in 10.0 mi West 6.9 mph - N/A   Clear
6:53 AM 12.9 °F -0.2 °F 3.0 °F 65% 30.33 in 10.0 mi West 10.4 mph - N/A   Clear
7:53 AM 12.9 °F -0.9 °F 3.0 °F 65% 30.34 in 10.0 mi West 11.5 mph - N/A   Clear
8:53 AM 17.1 °F 5.8 °F 5.0 °F 59% 30.34 in 10.0 mi West 9.2 mph - N/A   Clear
9:53 AM 19.0 °F 9.0 °F 7.0 °F 59% 30.35 in 10.0 mi West 8.1 mph - N/A   Clear
10:53 AM 25.0 °F 17.1 °F 10.9 °F 55% 30.32 in 10.0 mi West 6.9 mph - N/A   Clear
11:53 AM 30.9 °F 22.2 °F 12.9 °F 47% 30.26 in 10.0 mi NW 10.4 mph - N/A   Clear
12:53 PM 33.1 °F 26.1 °F 17.1 °F 52% 30.21 in 10.0 mi NW 8.1 mph - N/A   Clear
1:53 PM 35.1 °F - 18.0 °F 50% 30.19 in 10.0 mi Calm Calm - N/A   Clear
2:53 PM 36.0 °F 33.3 °F 19.9 °F 52% 30.16 in 10.0 mi North 3.5 mph - N/A   Clear
3:53 PM 32.0 °F - 18.0 °F 56% 30.17 in 10.0 mi Calm Calm - N/A   Clear
4:53 PM 25.0 °F - 17.1 °F 72% 30.19 in 10.0 mi Calm Calm - N/A   Clear
5:53 PM 21.9 °F 15.7 °F 14.0 °F 72% 30.21 in 10.0 mi SW 4.6 mph - N/A   Clear
6:53 PM 18.0 °F 12.7 °F 10.9 °F 74% 30.21 in 10.0 mi SW 3.5 mph - N/A   Clear
7:53 PM 18.0 °F 8.7 °F 10.0 °F 71% 30.19 in 10.0 mi WNW 6.9 mph - N/A   Clear
8:53 PM 18.0 °F 7.7 °F 10.0 °F 71% 30.17 in 10.0 mi WNW 8.1 mph - N/A   Clear
9:53 PM 15.8 °F 4.2 °F 8.6 °F 73% 30.02 in 10.0 mi WNW 9.2 mph - N/A   Clear
10:53 PM 17.1 °F 7.6 °F 10.0 °F 74% 30.14 in 10.0 mi WNW 6.9 mph - N/A   Clear
11:53 PM 14.0 °F 6.5 °F 8.1 °F 77% 30.10 in 10.0 mi West 4.6 mph - N/A   Clear